Station Historical Data
Daily Summary for February 10, 2017 Units:  English    Metric   Both
« Previous Day
Next Day »
Daily Weekly Monthly Yearly Custom
  High: Low: Average:
Temperature: 31.1 °F 17.5 °F 22.5 °F
Dew Point: 20.9 °F 8.5 °F 14.7 °F
Humidity: 88% 58% 72%
Wind Speed: 16.0mph 0.0mph 5.6mph
Wind Gust: 23.0mph - -
Wind- - SW
Pressure: 30.31 in 29.81 in -
Precipitation: 0.00 in    
Historical Graphs
 
 
Tabular Data for February 10, 2017
Time Temperature Dew Point Pressure Wind Wind Speed Wind Gust Humidity Rainfall Rate (Hourly)
00:04 18.1 °F 10.6 °F 30.18 in WNW 3.0 mph 14.0 mph 72% 0.00 in
00:09 18.0 °F 10.5 °F 30.17 in West 8.0 mph 16.0 mph 72% 0.00 in
00:14 18.0 °F 10.5 °F 30.17 in West 7.0 mph 16.0 mph 72% 0.00 in
00:19 18.0 °F 10.5 °F 30.17 in West 7.0 mph 16.0 mph 72% 0.00 in
00:24 18.0 °F 10.5 °F 30.17 in West 9.0 mph 13.0 mph 72% 0.00 in
00:29 18.1 °F 10.3 °F 30.17 in West 7.0 mph 13.0 mph 71% 0.00 in
00:34 18.2 °F 10.4 °F 30.17 in WSW 9.0 mph 19.0 mph 71% 0.00 in
00:39 18.2 °F 10.4 °F 30.17 in West 3.0 mph 16.0 mph 71% 0.00 in
00:44 18.1 °F 10.3 °F 30.17 in WSW 7.0 mph 9.0 mph 71% 0.00 in
00:49 18.2 °F 10.4 °F 30.17 in West 7.0 mph 16.0 mph 71% 0.00 in
00:54 18.3 °F 10.5 °F 30.17 in West 9.0 mph 19.0 mph 71% 0.00 in
00:59 18.3 °F 10.5 °F 30.18 in West 10.0 mph 20.0 mph 71% 0.00 in
01:04 18.2 °F 10.4 °F 30.18 in West 9.0 mph 20.0 mph 71% 0.00 in
01:09 18.2 °F 10.4 °F 30.18 in West 6.0 mph 17.0 mph 71% 0.00 in
01:14 18.2 °F 10.4 °F 30.18 in WSW 4.0 mph 15.0 mph 71% 0.00 in
01:19 18.2 °F 10.4 °F 30.19 in WSW 8.0 mph 19.0 mph 71% 0.00 in
01:24 18.1 °F 10.3 °F 30.19 in West 7.0 mph 19.0 mph 71% 0.00 in
01:29 18.0 °F 10.2 °F 30.19 in West 7.0 mph 15.0 mph 71% 0.00 in
01:34 18.1 °F 10.3 °F 30.19 in WSW 7.0 mph 15.0 mph 71% 0.00 in
01:39 18.2 °F 10.1 °F 30.20 in West 4.0 mph 16.0 mph 70% 0.00 in
01:44 18.2 °F 10.1 °F 30.20 in West 8.0 mph 15.0 mph 70% 0.00 in
01:49 18.2 °F 10.1 °F 30.20 in West 7.0 mph 14.0 mph 70% 0.00 in
01:54 18.2 °F 10.1 °F 30.20 in West 8.0 mph 16.0 mph 70% 0.00 in
01:59 18.2 °F 10.1 °F 30.20 in West 8.0 mph 16.0 mph 70% 0.00 in
02:04 18.2 °F 10.1 °F 30.20 in West 7.0 mph 19.0 mph 70% 0.00 in
02:09 18.2 °F 10.1 °F 30.21 in WSW 8.0 mph 11.0 mph 70% 0.00 in
02:14 18.2 °F 10.1 °F 30.21 in West 8.0 mph 14.0 mph 70% 0.00 in
02:19 18.4 °F 10.2 °F 30.21 in West 9.0 mph 16.0 mph 70% 0.00 in
02:24 18.4 °F 10.2 °F 30.21 in West 8.0 mph 18.0 mph 70% 0.00 in
02:29 18.5 °F 10.3 °F 30.22 in West 9.0 mph 18.0 mph 70% 0.00 in
02:34 18.5 °F 10.0 °F 30.22 in West 9.0 mph 18.0 mph 69% 0.00 in
02:39 18.5 °F 10.3 °F 30.22 in West 8.0 mph 18.0 mph 70% 0.00 in
02:44 18.5 °F 10.3 °F 30.23 in West 9.0 mph 19.0 mph 70% 0.00 in
02:49 18.5 °F 10.3 °F 30.23 in West 6.0 mph 14.0 mph 70% 0.00 in
02:54 18.4 °F 10.2 °F 30.23 in WNW 6.0 mph 18.0 mph 70% 0.00 in
02:59 18.3 °F 10.1 °F 30.24 in West 5.0 mph 18.0 mph 70% 0.00 in
03:04 18.2 °F 10.1 °F 30.23 in West 8.0 mph 18.0 mph 70% 0.00 in
03:09 18.1 °F 10.0 °F 30.24 in WSW 7.0 mph 17.0 mph 70% 0.00 in
03:14 18.1 °F 10.3 °F 30.24 in WNW 11.0 mph 15.0 mph 71% 0.00 in
03:19 18.0 °F 10.2 °F 30.24 in West 11.0 mph 23.0 mph 71% 0.00 in
03:24 18.0 °F 10.2 °F 30.24 in West 10.0 mph 15.0 mph 71% 0.00 in
03:29 17.9 °F 10.4 °F 30.24 in West 11.0 mph 17.0 mph 72% 0.00 in
03:34 17.8 °F 10.3 °F 30.25 in West 7.0 mph 21.0 mph 72% 0.00 in
03:39 17.7 °F 10.5 °F 30.25 in West 8.0 mph 21.0 mph 73% 0.00 in
03:44 17.6 °F 10.4 °F 30.25 in West 8.0 mph 16.0 mph 73% 0.00 in
03:49 17.5 °F 10.6 °F 30.26 in West 7.0 mph 17.0 mph 74% 0.00 in
03:54 17.5 °F 10.6 °F 30.25 in West 6.0 mph 17.0 mph 74% 0.00 in
03:59 17.5 °F 10.6 °F 30.26 in West 7.0 mph 16.0 mph 74% 0.00 in
04:04 17.5 °F 10.6 °F 30.26 in West 8.0 mph 16.0 mph 74% 0.00 in
04:09 17.5 °F 10.6 °F 30.26 in West 4.0 mph 18.0 mph 74% 0.00 in
04:14 17.5 °F 10.6 °F 30.26 in NW 9.0 mph 14.0 mph 74% 0.00 in
04:19 17.5 °F 10.3 °F 30.26 in WSW 7.0 mph 14.0 mph 73% 0.00 in
04:24 17.7 °F 10.5 °F 30.26 in West 12.0 mph 16.0 mph 73% 0.00 in
04:29 17.7 °F 10.2 °F 30.26 in WNW 5.0 mph 16.0 mph 72% 0.00 in
04:34 17.8 °F 10.0 °F 30.26 in SW 16.0 mph 17.0 mph 71% 0.00 in
04:39 17.9 °F 10.1 °F 30.26 in WSW 9.0 mph 17.0 mph 71% 0.00 in
04:44 17.9 °F 9.8 °F 30.26 in WSW 9.0 mph 17.0 mph 70% 0.00 in
04:49 17.9 °F 9.8 °F 30.26 in West 8.0 mph 19.0 mph 70% 0.00 in
04:54 18.0 °F 9.9 °F 30.27 in West 8.0 mph 19.0 mph 70% 0.00 in
04:59 17.9 °F 9.8 °F 30.27 in WNW 3.0 mph 13.0 mph 70% 0.00 in
05:04 17.9 °F 9.4 °F 30.27 in SW 8.0 mph 12.0 mph 69% 0.00 in
05:09 17.9 °F 9.4 °F 30.27 in West 7.0 mph 15.0 mph 69% 0.00 in
05:14 18.0 °F 9.2 °F 30.27 in WSW 7.0 mph 15.0 mph 68% 0.00 in
05:19 17.9 °F 9.1 °F 30.27 in WNW 5.0 mph 16.0 mph 68% 0.00 in
05:24 17.9 °F 9.1 °F 30.27 in West 5.0 mph 11.0 mph 68% 0.00 in
05:29 17.9 °F 9.1 °F 30.28 in WSW 5.0 mph 10.0 mph 68% 0.00 in
05:34 17.9 °F 9.1 °F 30.28 in West 8.0 mph 12.0 mph 68% 0.00 in
05:39 17.9 °F 9.1 °F 30.28 in West 7.0 mph 14.0 mph 68% 0.00 in
05:44 17.8 °F 9.0 °F 30.27 in WSW 8.0 mph 16.0 mph 68% 0.00 in
05:49 17.8 °F 9.3 °F 30.27 in WSW 8.0 mph 16.0 mph 69% 0.00 in
05:54 17.8 °F 9.3 °F 30.28 in WSW 7.0 mph 16.0 mph 69% 0.00 in
05:59 17.7 °F 9.2 °F 30.28 in WSW 7.0 mph 16.0 mph 69% 0.00 in
06:04 17.7 °F 9.2 °F 30.28 in West 8.0 mph 16.0 mph 69% 0.00 in
06:09 17.6 °F 9.2 °F 30.28 in West 6.0 mph 15.0 mph 69% 0.00 in
06:14 17.6 °F 9.2 °F 30.28 in West 5.0 mph 16.0 mph 69% 0.00 in
06:19 17.5 °F 9.1 °F 30.28 in WSW 6.0 mph 13.0 mph 69% 0.00 in
06:24 17.5 °F 8.7 °F 30.28 in WSW 6.0 mph 11.0 mph 68% 0.00 in
06:29 17.6 °F 8.8 °F 30.28 in West 4.0 mph 13.0 mph 68% 0.00 in
06:34 17.6 °F 8.5 °F 30.28 in WSW 5.0 mph 15.0 mph 67% 0.00 in
06:39 17.7 °F 8.6 °F 30.28 in WSW 9.0 mph 11.0 mph 67% 0.00 in
06:44 17.7 °F 8.9 °F 30.28 in WSW 6.0 mph 14.0 mph 68% 0.00 in
06:49 17.7 °F 8.9 °F 30.28 in WSW 6.0 mph 14.0 mph 68% 0.00 in
06:54 17.9 °F 9.1 °F 30.28 in West 7.0 mph 15.0 mph 68% 0.00 in
06:59 18.0 °F 9.2 °F 30.28 in WSW 8.0 mph 15.0 mph 68% 0.00 in
07:04 18.1 °F 9.3 °F 30.28 in WSW 7.0 mph 13.0 mph 68% 0.00 in
07:09 18.0 °F 9.5 °F 30.28 in SSW 7.0 mph 13.0 mph 69% 0.00 in
07:14 18.1 °F 9.6 °F 30.28 in SW 7.0 mph 11.0 mph 69% 0.00 in
07:19 18.1 °F 9.6 °F 30.28 in WSW 6.0 mph 12.0 mph 69% 0.00 in
07:24 18.1 °F 9.6 °F 30.28 in WSW 5.0 mph 11.0 mph 69% 0.00 in
07:29 18.2 °F 9.4 °F 30.28 in WSW 4.0 mph 10.0 mph 68% 0.00 in
07:34 18.2 °F 9.7 °F 30.28 in SW 4.0 mph 14.0 mph 69% 0.00 in
07:39 18.2 °F 9.7 °F 30.28 in WSW 7.0 mph 15.0 mph 69% 0.00 in
07:44 18.3 °F 9.8 °F 30.28 in SW 4.0 mph 10.0 mph 69% 0.00 in
07:49 18.4 °F 9.6 °F 30.28 in WSW 6.0 mph 11.0 mph 68% 0.00 in
07:54 18.5 °F 9.7 °F 30.28 in WSW 6.0 mph 11.0 mph 68% 0.00 in
07:59 18.6 °F 9.8 °F 30.28 in WSW 5.0 mph 13.0 mph 68% 0.00 in
08:04 18.8 °F 10.0 °F 30.29 in WSW 5.0 mph 13.0 mph 68% 0.00 in
08:09 19.0 °F 10.2 °F 30.29 in SSW 3.0 mph 12.0 mph 68% 0.00 in
08:14 19.0 °F 10.2 °F 30.30 in SW 7.0 mph 13.0 mph 68% 0.00 in
08:19 19.1 °F 10.3 °F 30.30 in WSW 6.0 mph 13.0 mph 68% 0.00 in
08:24 19.3 °F 10.5 °F 30.30 in WSW 6.0 mph 12.0 mph 68% 0.00 in
08:29 19.7 °F 10.8 °F 30.30 in WSW 4.0 mph 11.0 mph 68% 0.00 in
08:34 19.9 °F 10.7 °F 30.30 in WNW 11.0 mph 16.0 mph 67% 0.00 in
08:39 20.3 °F 11.1 °F 30.31 in West 6.0 mph 11.0 mph 67% 0.00 in
08:44 20.5 °F 11.3 °F 30.31 in WSW 4.0 mph 15.0 mph 67% 0.00 in
08:49 20.9 °F 11.7 °F 30.31 in WSW 9.0 mph 11.0 mph 67% 0.00 in
08:54 20.9 °F 11.3 °F 30.31 in WSW 7.0 mph 15.0 mph 66% 0.00 in
08:59 21.2 °F 11.9 °F 30.31 in WSW 8.0 mph 15.0 mph 67% 0.00 in
09:04 21.5 °F 11.9 °F 30.31 in WSW 7.0 mph 13.0 mph 66% 0.00 in
09:09 21.6 °F 12.0 °F 30.31 in West 5.0 mph 10.0 mph 66% 0.00 in
09:14 21.5 °F 11.5 °F 30.31 in West 4.0 mph 14.0 mph 65% 0.00 in
09:19 21.6 °F 12.0 °F 30.31 in WSW 10.0 mph 14.0 mph 66% 0.00 in
09:24 21.8 °F 12.5 °F 30.31 in WSW 7.0 mph 14.0 mph 67% 0.00 in
09:29 21.9 °F 13.0 °F 30.31 in WSW 7.0 mph 14.0 mph 68% 0.00 in
09:34 22.1 °F 12.1 °F 30.31 in WSW 6.0 mph 12.0 mph 65% 0.00 in
09:39 21.6 °F 11.6 °F 30.31 in WNW 11.0 mph 16.0 mph 65% 0.00 in
09:44 21.6 °F 11.6 °F 30.31 in WNW 4.0 mph 12.0 mph 65% 0.00 in
09:49 21.7 °F 11.7 °F 30.31 in WSW 8.0 mph 14.0 mph 65% 0.00 in
09:54 21.7 °F 12.1 °F 30.31 in SW 7.0 mph 12.0 mph 66% 0.00 in
09:59 22.0 °F 12.4 °F 30.30 in WSW 7.0 mph 15.0 mph 66% 0.00 in
10:04 22.3 °F 12.0 °F 30.30 in WSW 8.0 mph 15.0 mph 64% 0.00 in
10:09 22.4 °F 12.8 °F 30.30 in WSW 8.0 mph 15.0 mph 66% 0.00 in
10:14 22.6 °F 13.3 °F 30.30 in WNW 5.0 mph 15.0 mph 67% 0.00 in
10:19 22.7 °F 13.4 °F 30.30 in West 7.0 mph 14.0 mph 67% 0.00 in
10:24 22.9 °F 13.6 °F 30.30 in SW 12.0 mph 16.0 mph 67% 0.00 in
10:29 22.6 °F 13.3 °F 30.30 in WSW 8.0 mph 16.0 mph 67% 0.00 in
10:34 22.5 °F 13.5 °F 30.30 in WSW 8.0 mph 14.0 mph 68% 0.00 in
10:39 22.3 °F 13.3 °F 30.29 in WSW 7.0 mph 16.0 mph 68% 0.00 in
10:44 22.5 °F 13.5 °F 30.29 in WSW 7.0 mph 16.0 mph 68% 0.00 in
10:49 22.7 °F 14.1 °F 30.28 in South 6.0 mph 10.0 mph 69% 0.00 in
10:54 22.7 °F 13.7 °F 30.28 in SW 7.0 mph 12.0 mph 68% 0.00 in
10:59 22.5 °F 13.5 °F 30.28 in SW 7.0 mph 14.0 mph 68% 0.00 in
11:04 22.5 °F 13.5 °F 30.27 in SW 7.0 mph 14.0 mph 68% 0.00 in
11:09 22.5 °F 13.2 °F 30.27 in West 4.0 mph 11.0 mph 67% 0.00 in
11:14 22.7 °F 13.7 °F 30.27 in SSW 9.0 mph 14.0 mph 68% 0.00 in
11:19 22.9 °F 13.9 °F 30.26 in SW 6.0 mph 13.0 mph 68% 0.00 in
11:24 23.1 °F 13.8 °F 30.26 in SSE 6.0 mph 11.0 mph 67% 0.00 in
11:29 24.1 °F 14.7 °F 30.26 in SSW 6.0 mph 11.0 mph 67% 0.00 in
11:34 24.2 °F 14.5 °F 30.26 in SW 5.0 mph 10.0 mph 66% 0.00 in
11:39 23.6 °F 13.5 °F 30.26 in SW 6.0 mph 14.0 mph 65% 0.00 in
11:44 23.7 °F 13.6 °F 30.25 in SW 9.0 mph 11.0 mph 65% 0.00 in
11:49 23.7 °F 12.9 °F 30.25 in WSW 9.0 mph 16.0 mph 63% 0.00 in
11:54 23.7 °F 13.3 °F 30.25 in SW 11.0 mph 13.0 mph 64% 0.00 in
11:59 23.7 °F 14.0 °F 30.25 in WSW 4.0 mph 14.0 mph 66% 0.00 in
12:04 23.6 °F 13.5 °F 30.24 in WSW 6.0 mph 14.0 mph 65% 0.00 in
12:09 24.1 °F 14.4 °F 30.25 in SW 6.0 mph 10.0 mph 66% 0.00 in
12:14 24.1 °F 14.7 °F 30.24 in South 6.0 mph 15.0 mph 67% 0.00 in
12:19 23.9 °F 14.9 °F 30.24 in SW 7.0 mph 12.0 mph 68% 0.00 in
12:24 23.9 °F 14.5 °F 30.23 in WSW 8.0 mph 12.0 mph 67% 0.00 in
12:29 23.8 °F 14.4 °F 30.23 in West 9.0 mph 13.0 mph 67% 0.00 in
12:34 24.6 °F 15.5 °F 30.23 in WSW 13.0 mph 13.0 mph 68% 0.00 in
12:39 24.2 °F 14.5 °F 30.23 in SW 6.0 mph 13.0 mph 66% 0.00 in
12:44 24.2 °F 14.8 °F 30.22 in South 7.0 mph 11.0 mph 67% 0.00 in
12:49 24.2 °F 15.2 °F 30.22 in WSW 8.0 mph 14.0 mph 68% 0.00 in
12:54 24.4 °F 15.3 °F 30.22 in WSW 6.0 mph 13.0 mph 68% 0.00 in
12:59 24.7 °F 15.3 °F 30.22 in SW 6.0 mph 13.0 mph 67% 0.00 in
13:04 24.5 °F 15.4 °F 30.21 in West 2.0 mph 12.0 mph 68% 0.00 in
13:09 24.6 °F 15.2 °F 30.21 in WSW 7.0 mph 13.0 mph 67% 0.00 in
13:14 24.7 °F 15.3 °F 30.21 in WSW 7.0 mph 14.0 mph 67% 0.00 in
13:19 24.6 °F 15.2 °F 30.20 in WSW 7.0 mph 14.0 mph 67% 0.00 in
13:24 24.6 °F 15.9 °F 30.20 in WSW 7.0 mph 12.0 mph 69% 0.00 in
13:29 24.8 °F 16.4 °F 30.20 in SW 6.0 mph 11.0 mph 70% 0.00 in
13:34 24.7 °F 16.6 °F 30.19 in West 5.0 mph 12.0 mph 71% 0.00 in
13:39 24.9 °F 16.8 °F 30.19 in WSW 6.0 mph 10.0 mph 71% 0.00 in
13:44 24.8 °F 17.4 °F 30.18 in SW 5.0 mph 11.0 mph 73% 0.00 in
13:49 24.6 °F 18.1 °F 30.18 in SSW 5.0 mph 11.0 mph 76% 0.00 in
13:54 24.4 °F 17.9 °F 30.18 in WSW 4.0 mph 10.0 mph 76% 0.00 in
13:59 24.2 °F 18.3 °F 30.17 in SSW 4.0 mph 10.0 mph 78% 0.00 in
14:04 24.0 °F 18.4 °F 30.16 in SSW 1.0 mph 8.0 mph 79% 0.00 in
14:09 23.8 °F 18.5 °F 30.16 in SW 4.0 mph 7.0 mph 80% 0.00 in
14:14 23.8 °F 18.8 °F 30.16 in SW 4.0 mph 10.0 mph 81% 0.00 in
14:19 24.1 °F 19.4 °F 30.16 in SW 4.0 mph 10.0 mph 82% 0.00 in
14:24 23.9 °F 19.2 °F 30.15 in SSW 4.0 mph 8.0 mph 82% 0.00 in
14:29 23.8 °F 19.4 °F 30.15 in SW 4.0 mph 8.0 mph 83% 0.00 in
14:34 23.7 °F 19.6 °F 30.14 in SSW 4.0 mph 7.0 mph 84% 0.00 in
14:39 23.7 °F 19.9 °F 30.14 in SSW 4.0 mph 7.0 mph 85% 0.00 in
14:44 23.8 °F 19.9 °F 30.14 in SSW 3.0 mph 7.0 mph 85% 0.00 in
14:49 23.7 °F 19.9 °F 30.14 in South 6.0 mph 7.0 mph 85% 0.00 in
14:54 23.8 °F 20.2 °F 30.13 in South 3.0 mph 7.0 mph 86% 0.00 in
14:59 23.7 °F 19.9 °F 30.13 in South 7.0 mph 9.0 mph 85% 0.00 in
15:04 23.7 °F 19.9 °F 30.14 in SSW 5.0 mph 10.0 mph 85% 0.00 in
15:09 23.4 °F 19.6 °F 30.13 in South 5.0 mph 10.0 mph 85% 0.00 in
15:14 23.4 °F 19.6 °F 30.12 in SSE 4.0 mph 11.0 mph 85% 0.00 in
15:19 23.2 °F 19.4 °F 30.12 in SSW 8.0 mph 12.0 mph 85% 0.00 in
15:24 23.3 °F 19.7 °F 30.12 in South 6.0 mph 12.0 mph 86% 0.00 in
15:29 23.1 °F 19.3 °F 30.11 in South 7.0 mph 14.0 mph 85% 0.00 in
15:34 23.0 °F 19.4 °F 30.11 in South 6.0 mph 14.0 mph 86% 0.00 in
15:39 23.1 °F 19.5 °F 30.11 in SSW 8.0 mph 9.0 mph 86% 0.00 in
15:44 23.1 °F 19.5 °F 30.11 in SSW 6.0 mph 13.0 mph 86% 0.00 in
15:49 23.1 °F 19.5 °F 30.10 in SSW 5.0 mph 10.0 mph 86% 0.00 in
15:54 23.1 °F 19.5 °F 30.09 in South 6.0 mph 10.0 mph 86% 0.00 in
15:59 23.1 °F 19.5 °F 30.09 in South 5.0 mph 11.0 mph 86% 0.00 in
16:04 23.2 °F 19.6 °F 30.08 in SSW 5.0 mph 10.0 mph 86% 0.00 in
16:09 23.2 °F 19.9 °F 30.08 in South 3.0 mph 10.0 mph 87% 0.00 in
16:14 23.3 °F 20.0 °F 30.08 in South 5.0 mph 11.0 mph 87% 0.00 in
16:19 23.3 °F 20.0 °F 30.07 in South 7.0 mph 11.0 mph 87% 0.00 in
16:24 23.4 °F 20.1 °F 30.06 in South 5.0 mph 11.0 mph 87% 0.00 in
16:29 23.5 °F 20.2 °F 30.05 in South 4.0 mph 9.0 mph 87% 0.00 in
16:34 23.7 °F 20.4 °F 30.04 in South 4.0 mph 8.0 mph 87% 0.00 in
16:39 23.6 °F 20.3 °F 30.04 in South 4.0 mph 9.0 mph 87% 0.00 in
16:44 23.6 °F 20.3 °F 30.03 in South 4.0 mph 10.0 mph 87% 0.00 in
16:49 23.6 °F 20.3 °F 30.02 in South 2.0 mph 7.0 mph 87% 0.00 in
16:54 23.5 °F 20.2 °F 30.01 in SSE 3.0 mph 8.0 mph 87% 0.00 in
16:59 23.4 °F 20.1 °F 30.01 in SSW 3.0 mph 7.0 mph 87% 0.00 in
17:04 23.4 °F 20.1 °F 30.00 in SE 5.0 mph 10.0 mph 87% 0.00 in
17:09 23.3 °F 20.0 °F 29.99 in ESE 3.0 mph 8.0 mph 87% 0.00 in
17:14 23.3 °F 20.3 °F 30.00 in South 2.0 mph 7.0 mph 88% 0.00 in
17:19 23.4 °F 20.4 °F 30.00 in SSE 4.0 mph 7.0 mph 88% 0.00 in
17:24 23.5 °F 20.5 °F 29.99 in SE 5.0 mph 6.0 mph 88% 0.00 in
17:29 23.5 °F 20.5 °F 30.00 in SSE 1.0 mph 6.0 mph 88% 0.00 in
17:34 23.6 °F 20.6 °F 29.99 in SSE 3.0 mph 6.0 mph 88% 0.00 in
17:39 23.7 °F 20.4 °F 29.99 in SSE 2.0 mph 5.0 mph 87% 0.00 in
17:44 23.6 °F 20.3 °F 29.98 in SE 2.0 mph 7.0 mph 87% 0.00 in
17:49 23.7 °F 20.4 °F 29.98 in SE 2.0 mph 7.0 mph 87% 0.00 in
17:54 23.7 °F 20.4 °F 29.97 in SE 1.0 mph 5.0 mph 87% 0.00 in
17:59 23.8 °F 20.5 °F 29.97 in SE 3.0 mph 5.0 mph 87% 0.00 in
18:04 23.8 °F 20.5 °F 29.96 in SE 3.0 mph 6.0 mph 87% 0.00 in
18:09 23.8 °F 20.5 °F 29.96 in ESE 2.0 mph 6.0 mph 87% 0.00 in
18:14 24.0 °F 20.7 °F 29.96 in SE 2.0 mph 4.0 mph 87% 0.00 in
18:19 24.0 °F 20.4 °F 29.96 in SE 1.0 mph 4.0 mph 86% 0.00 in
18:24 24.2 °F 20.6 °F 29.96 in SE 2.0 mph 5.0 mph 86% 0.00 in
18:29 24.3 °F 20.7 °F 29.95 in ESE 3.0 mph 4.0 mph 86% 0.00 in
18:34 24.4 °F 20.5 °F 29.96 in SE 2.0 mph 5.0 mph 85% 0.00 in
18:39 24.5 °F 20.6 °F 29.96 in ESE 2.0 mph 5.0 mph 85% 0.00 in
18:44 24.6 °F 20.7 °F 29.96 in ESE 1.0 mph 4.0 mph 85% 0.00 in
18:49 24.7 °F 20.8 °F 29.96 in East 1.0 mph 3.0 mph 85% 0.00 in
18:54 24.8 °F 20.9 °F 29.96 in East 1.0 mph 3.0 mph 85% 0.00 in
18:59 24.7 °F 20.8 °F 29.97 in SE 2.0 mph 2.0 mph 85% 0.00 in
19:04 24.8 °F 20.9 °F 29.96 in Calm   3.0 mph 85% 0.00 in
19:09 24.8 °F 20.7 °F 29.96 in SE 1.0 mph 3.0 mph 84% 0.00 in
19:14 25.0 °F 20.8 °F 29.95 in SE 1.0 mph 3.0 mph 84% 0.00 in
19:19 25.0 °F 20.8 °F 29.95 in Calm   3.0 mph 84% 0.00 in
19:24 25.1 °F 20.7 °F 29.94 in SE 2.0 mph 4.0 mph 83% 0.00 in
19:29 25.2 °F 20.8 °F 29.94 in SSE 1.0 mph 3.0 mph 83% 0.00 in
19:34 25.3 °F 20.6 °F 29.94 in Calm   4.0 mph 82% 0.00 in
19:39 25.3 °F 20.6 °F 29.93 in Calm   3.0 mph 82% 0.00 in
19:44 25.4 °F 20.7 °F 29.93 in SE 1.0 mph 3.0 mph 82% 0.00 in
19:49 25.4 °F 20.7 °F 29.92 in SE 2.0 mph 5.0 mph 82% 0.00 in
19:54 25.4 °F 20.4 °F 29.92 in SE 2.0 mph 5.0 mph 81% 0.00 in
19:59 25.4 °F 20.4 °F 29.91 in SSE 1.0 mph 4.0 mph 81% 0.00 in
20:04 25.6 °F 20.3 °F 29.91 in SSE 1.0 mph 4.0 mph 80% 0.00 in
20:09 25.8 °F 20.2 °F 29.90 in SSW 4.0 mph 7.0 mph 79% 0.00 in
20:14 26.1 °F 19.6 °F 29.90 in South 3.0 mph 7.0 mph 76% 0.00 in
20:19 26.3 °F 19.1 °F 29.90 in South 4.0 mph 7.0 mph 74% 0.00 in
20:24 26.5 °F 19.0 °F 29.89 in South 4.0 mph 8.0 mph 73% 0.00 in
20:29 26.8 °F 18.7 °F 29.89 in SSW 6.0 mph 7.0 mph 71% 0.00 in
20:34 26.9 °F 18.4 °F 29.88 in SW 3.0 mph 12.0 mph 70% 0.00 in
20:39 27.2 °F 18.4 °F 29.88 in SSW 3.0 mph 9.0 mph 69% 0.00 in
20:44 27.4 °F 17.9 °F 29.88 in South 5.0 mph 9.0 mph 67% 0.00 in
20:49 27.6 °F 17.4 °F 29.87 in SSW 5.0 mph 14.0 mph 65% 0.00 in
20:54 27.8 °F 17.2 °F 29.86 in SSW 5.0 mph 14.0 mph 64% 0.00 in
20:59 27.9 °F 16.9 °F 29.87 in South 6.0 mph 12.0 mph 63% 0.00 in
21:04 28.2 °F 17.2 °F 29.87 in South 9.0 mph 9.0 mph 63% 0.00 in
21:09 28.3 °F 16.6 °F 29.87 in SW 5.0 mph 11.0 mph 61% 0.00 in
21:14 28.4 °F 16.7 °F 29.86 in SSW 5.0 mph 12.0 mph 61% 0.00 in
21:19 28.4 °F 16.7 °F 29.86 in SSW 4.0 mph 12.0 mph 61% 0.00 in
21:24 28.5 °F 16.4 °F 29.86 in SSW 4.0 mph 10.0 mph 60% 0.00 in
21:29 28.7 °F 16.9 °F 29.86 in SSW 4.0 mph 10.0 mph 61% 0.00 in
21:34 28.7 °F 16.6 °F 29.86 in SW 3.0 mph 8.0 mph 60% 0.00 in
21:39 28.9 °F 16.4 °F 29.85 in SSW 5.0 mph 11.0 mph 59% 0.00 in
21:44 28.9 °F 16.4 °F 29.85 in SSW 5.0 mph 11.0 mph 59% 0.00 in
21:49 29.0 °F 16.4 °F 29.84 in SSW 5.0 mph 9.0 mph 59% 0.00 in
21:54 29.0 °F 16.1 °F 29.83 in SSW 5.0 mph 10.0 mph 58% 0.00 in
21:59 29.2 °F 16.6 °F 29.83 in SSE 8.0 mph 9.0 mph 59% 0.00 in
22:04 29.2 °F 16.6 °F 29.83 in SSW 4.0 mph 8.0 mph 59% 0.00 in
22:09 29.3 °F 16.7 °F 29.83 in WSW 4.0 mph 10.0 mph 59% 0.00 in
22:14 29.5 °F 16.5 °F 29.84 in SW 5.0 mph 10.0 mph 58% 0.00 in
22:19 29.5 °F 16.9 °F 29.83 in SSW 4.0 mph 10.0 mph 59% 0.00 in
22:24 29.5 °F 17.3 °F 29.82 in SSW 4.0 mph 8.0 mph 60% 0.00 in
22:29 29.6 °F 17.0 °F 29.82 in SSW 5.0 mph 10.0 mph 59% 0.00 in
22:34 29.7 °F 17.1 °F 29.83 in SW 6.0 mph 7.0 mph 59% 0.00 in
22:39 29.8 °F 17.6 °F 29.82 in SSW 4.0 mph 8.0 mph 60% 0.00 in
22:44 29.9 °F 17.3 °F 29.82 in South 4.0 mph 11.0 mph 59% 0.00 in
22:49 30.0 °F 17.4 °F 29.82 in SW 3.0 mph 9.0 mph 59% 0.00 in
22:54 30.1 °F 17.9 °F 29.82 in SW 5.0 mph 8.0 mph 60% 0.00 in
22:59 30.1 °F 17.9 °F 29.82 in SSW 6.0 mph 6.0 mph 60% 0.00 in
23:04 30.2 °F 18.4 °F 29.82 in South 7.0 mph 7.0 mph 61% 0.00 in
23:09 30.3 °F 18.5 °F 29.82 in SW 4.0 mph 8.0 mph 61% 0.00 in
23:14 30.4 °F 18.2 °F 29.82 in SW 4.0 mph 8.0 mph 60% 0.00 in
23:19 30.5 °F 18.3 °F 29.82 in WSW 4.0 mph 9.0 mph 60% 0.00 in
23:24 30.6 °F 18.3 °F 29.82 in SW 4.0 mph 9.0 mph 60% 0.00 in
23:29 30.7 °F 18.4 °F 29.82 in SW 3.0 mph 8.0 mph 60% 0.00 in
23:34 30.9 °F 19.0 °F 29.82 in SW 4.0 mph 9.0 mph 61% 0.00 in
23:39 31.0 °F 18.7 °F 29.82 in SSW 2.0 mph 8.0 mph 60% 0.00 in
23:44 31.0 °F 19.1 °F 29.81 in SW 4.0 mph 8.0 mph 61% 0.00 in
23:49 31.0 °F 19.1 °F 29.81 in SSW 4.0 mph 7.0 mph 61% 0.00 in
23:54 31.1 °F 19.6 °F 29.81 in SW 3.0 mph 7.0 mph 62% 0.00 in
23:59 31.1 °F 19.2 °F 29.81 in SW 3.0 mph 7.0 mph 61% 0.00 in
Buffalo, New York, USA
Compliments of Weather Underground - 2.5 mb